Weather History for KPCZ - June, 2013

Change the Weather History Date:

Sunday, June 16, 2013

  Actual Average Record
Temperature  
Mean Temperature 70 °F -  
Max Temperature 83 °F 74 °F 89 °F (1967)
Min Temperature 58 °F 53 °F 35 °F (1964)
Cooling Degree Days 6    
Growing Degree Days 20 (Base 50)    
Moisture  
Dew Point 55 °F    
Average Humidity 61    
Maximum Humidity 94    
Minimum Humidity 24    
Precipitation  
Precipitation 0.01 in - - ()
Sea Level Pressure  
Sea Level Pressure 29.87 in    
Wind  
Wind Speed 5 mph (West)    
Max Wind Speed 17 mph    
Max Gust Speed 22 mph    
Visibility 9 miles    
Events      
Averages and records for this station are not official NWS values.
T = Trace of Precipitation, MM = Missing Value Source: NWS Daily Summary

Daily Weather History Graph

Daily Weather History Graph

Search for Another Location

Airport or City:

Trip Planner

Search our weather history database for the weather conditions in past years. The results will help you decide how hot, cold, wet, or windy it might be!

Date:

Astronomy

Jun. 16, 2013 Rise Set
Actual Time 5:11 AM CDT 8:42 PM CDT
Civil Twilight 4:34 AM CDT 9:19 PM CDT
Nautical Twilight 3:46 AM CDT 10:07 PM CDT
Astronomical Twilight 2:44 AM CDT 11:10 PM CDT
Moon 1:03 PM CDT (6/16) 12:32 AM CDT (6/16)
Length of Visible Light 16h 44m
Length of Day
15h 31m
Waxing Crescent, 50% of the Moon is Illuminated
Jun 16
Waxing Crescent
Jun 16
First Quarter
Jun 23
Full
Jun 29
Last Quarter
Jul 8
New

Hourly Weather History & Observations

Time (CDT) Temp. Heat Index Dew Point Humidity Pressure Visibility Wind Dir Wind Speed Gust Speed Precip Events Conditions
12:15 AM 64.0 °F - 62.1 °F 93% 29.85 in 2.0 mi Calm Calm - N/A   Scattered Clouds
12:35 AM 64.0 °F - 62.1 °F 93% 29.86 in 7.0 mi West 3.5 mph - N/A   Clear
12:55 AM 63.7 °F - 61.9 °F 94% 29.86 in 10.0 mi West 4.6 mph - N/A   Clear
1:15 AM 64.0 °F - 62.1 °F 93% 29.86 in 10.0 mi WNW 4.6 mph - N/A   Clear
1:35 AM 63.1 °F - 61.3 °F 94% 29.87 in 10.0 mi Calm Calm - N/A   Clear
1:55 AM 63.1 °F - 61.2 °F 93% 29.86 in 10.0 mi West 3.5 mph - N/A   Clear
2:15 AM 63.1 °F - 61.2 °F 93% 29.85 in 10.0 mi WNW 4.6 mph - N/A   Clear
2:35 AM 62.6 °F - 60.8 °F 94% 29.84 in 10.0 mi WNW 3.5 mph - N/A   Clear
2:55 AM 62.6 °F - 60.4 °F 93% 29.85 in 10.0 mi WNW 5.8 mph - N/A   Clear
3:15 AM 62.2 °F - 60.3 °F 93% 29.85 in 10.0 mi West 5.8 mph - N/A   Scattered Clouds
3:35 AM 62.1 °F - 60.1 °F 93% 29.85 in 10.0 mi West 4.6 mph - N/A   Scattered Clouds
3:55 AM 62.1 °F - 60.1 °F 93% 29.85 in 10.0 mi West 3.5 mph - N/A   Clear
4:15 AM 60.8 °F - 58.6 °F 93% 29.86 in 7.0 mi Calm Calm - N/A   Clear
4:35 AM 60.3 °F - 58.3 °F 93% 29.86 in 5.0 mi Calm Calm - N/A   Clear
4:55 AM 59.4 °F - 57.4 °F 93% 29.87 in 5.0 mi Calm Calm - N/A   Clear
5:15 AM 59.0 °F - 57.2 °F 94% 29.87 in 4.0 mi Calm Calm - 0.01 in   Clear
5:35 AM 58.6 °F - 56.8 °F 94% 29.87 in 2.5 mi Calm Calm - 0.01 in   Clear
5:55 AM 58.6 °F - 56.8 °F 94% 29.88 in 3.0 mi Calm Calm - 0.01 in   Clear
6:15 AM 61.0 °F - 59.2 °F 94% 29.88 in 10.0 mi West 4.6 mph - N/A   Clear
6:35 AM 62.6 °F - 60.8 °F 94% 29.88 in 10.0 mi West 5.8 mph - N/A   Clear
6:55 AM 64.0 °F - 62.1 °F 93% 29.88 in 10.0 mi West 6.9 mph - N/A   Clear
7:15 AM 64.6 °F - 62.6 °F 93% 29.88 in 10.0 mi West 6.9 mph - N/A   Clear
7:35 AM 65.8 °F - 63.0 °F 90% 29.89 in 10.0 mi West 5.8 mph - N/A   Clear
7:55 AM 67.5 °F - 63.1 °F 86% 29.89 in 10.0 mi West 4.6 mph - N/A   Clear
8:15 AM 69.3 °F - 63.3 °F 81% 29.88 in 10.0 mi West 5.8 mph - N/A   Clear
8:35 AM 70.9 °F - 62.6 °F 75% 29.88 in 10.0 mi West 3.5 mph - N/A   Clear
8:55 AM 72.1 °F - 61.7 °F 70% 29.88 in 10.0 mi West 4.6 mph - N/A   Clear
9:15 AM 73.2 °F - 58.8 °F 61% 29.88 in 10.0 mi West 8.1 mph - N/A   Clear
9:35 AM 74.5 °F - 58.5 °F 57% 29.88 in 10.0 mi West 8.1 mph - N/A   Clear
9:55 AM 74.5 °F - 59.0 °F 58% 29.88 in 10.0 mi West 8.1 mph - N/A   Clear
10:15 AM 75.4 °F - 58.5 °F 56% 29.88 in 10.0 mi West 6.9 mph - N/A   Clear
10:35 AM 76.8 °F - 58.6 °F 53% 29.88 in 10.0 mi West 6.9 mph - N/A   Clear
10:55 AM 78.1 °F - 58.8 °F 51% 29.88 in 10.0 mi WNW 5.8 mph - N/A   Clear
11:15 AM 79.0 °F - 56.8 °F 46% 29.88 in 10.0 mi WNW 6.9 mph - N/A   Clear
11:35 AM 79.9 °F - 54.7 °F 42% 29.88 in 10.0 mi NW 10.4 mph - N/A   Clear
11:55 AM 80.6 °F 80.3 °F 53.4 °F 39% 29.88 in 10.0 mi NW 10.4 mph 16.1 mph N/A   Clear
12:15 PM 81.5 °F - 50.7 °F 34% 29.88 in 10.0 mi West 13.8 mph 17.3 mph N/A   Scattered Clouds
12:35 PM 81.5 °F - 50.7 °F 34% 29.88 in 10.0 mi West 6.9 mph 21.9 mph N/A   Clear
12:55 PM 82.2 °F - 47.3 °F 29% 29.88 in 10.0 mi West 12.7 mph 21.9 mph N/A   Clear
1:15 PM 81.7 °F - 48.4 °F 31% 29.88 in 10.0 mi West 10.4 mph 17.3 mph N/A   Scattered Clouds
1:35 PM 82.9 °F - 47.1 °F 29% 29.88 in 10.0 mi WNW 13.8 mph 20.7 mph N/A   Scattered Clouds
1:55 PM 82.8 °F - 46.8 °F 28% 29.88 in 10.0 mi West 17.3 mph - N/A   Scattered Clouds
2:15 PM 83.8 °F - 47.3 °F 28% 29.88 in 10.0 mi West 12.7 mph 19.6 mph N/A   Scattered Clouds
2:35 PM 83.5 °F - 46.8 °F 28% 29.88 in 10.0 mi WNW 12.7 mph 18.4 mph N/A   Scattered Clouds
2:55 PM 82.6 °F - 47.3 °F 29% 29.88 in 10.0 mi NW 9.2 mph 18.4 mph N/A   Scattered Clouds
3:15 PM 80.8 °F - 46.4 °F 30% 29.88 in 10.0 mi West 11.5 mph 19.6 mph N/A   Mostly Cloudy
3:35 PM 83.3 °F - 47.3 °F 28% 29.88 in 10.0 mi WNW 16.1 mph - N/A   Scattered Clouds
3:55 PM 82.9 °F - 46.2 °F 28% 29.88 in 10.0 mi West 11.5 mph 18.4 mph N/A   Scattered Clouds
4:15 PM 83.3 °F - 45.3 °F 26% 29.88 in 10.0 mi West 15.0 mph 21.9 mph N/A   Scattered Clouds
4:35 PM 83.3 °F - 45.1 °F 26% 29.87 in 10.0 mi West 8.1 mph - N/A   Scattered Clouds
4:55 PM 83.3 °F - 45.7 °F 27% 29.87 in 10.0 mi West 12.7 mph 18.4 mph N/A   Clear
5:15 PM 83.3 °F - 43.2 °F 24% 29.86 in 10.0 mi West 11.5 mph 21.9 mph N/A   Clear
5:35 PM 82.4 °F - 45.0 °F 27% 29.86 in 10.0 mi West 15.0 mph 19.6 mph N/A   Clear
5:55 PM 82.4 °F - 45.9 °F 28% 29.86 in 10.0 mi West 9.2 mph 16.1 mph N/A   Clear
6:15 PM 81.9 °F - 47.1 °F 30% 29.86 in 10.0 mi West 9.2 mph - N/A   Clear
6:35 PM 81.5 °F - 48.4 °F 31% 29.86 in 10.0 mi West 6.9 mph - N/A   Clear
6:55 PM 79.7 °F - 48.6 °F 33% 29.87 in 10.0 mi West 6.9 mph - N/A   Clear
7:15 PM 79.0 °F - 49.3 °F 35% 29.87 in 10.0 mi West 5.8 mph - N/A   Clear
7:35 PM 78.1 °F - 51.8 °F 40% 29.87 in 10.0 mi West 3.5 mph - N/A   Clear
7:55 PM 77.7 °F - 52.9 °F 42% 29.87 in 10.0 mi West 3.5 mph - N/A   Clear
8:15 PM 76.1 °F - 53.6 °F 45% 29.87 in 10.0 mi WSW 3.5 mph - N/A   Clear
8:35 PM 74.5 °F - 52.7 °F 46% 29.87 in 10.0 mi Calm Calm - N/A   Clear
8:55 PM 71.4 °F - 55.4 °F 57% 29.87 in 10.0 mi Calm Calm - N/A   Clear
9:15 PM 69.3 °F - 55.8 °F 62% 29.87 in 10.0 mi Calm Calm - N/A   Clear
9:35 PM 66.2 °F - 55.8 °F 69% 29.87 in 10.0 mi Calm Calm - N/A   Clear
9:55 PM 66.4 °F - 55.8 °F 69% 29.87 in 10.0 mi Calm Calm - N/A   Clear
10:15 PM 64.0 °F - 56.8 °F 77% 29.88 in 10.0 mi Calm Calm - N/A   Clear
10:35 PM 67.5 °F - 53.4 °F 61% 29.90 in 10.0 mi NNE 9.2 mph 16.1 mph N/A   Scattered Clouds
10:55 PM 67.8 °F - 52.2 °F 57% 29.91 in 10.0 mi NE 8.1 mph - N/A   Scattered Clouds
11:15 PM 67.1 °F - 51.8 °F 58% 29.91 in 10.0 mi ENE 4.6 mph - N/A   Clear
11:35 PM 64.6 °F - 52.5 °F 65% 29.91 in 10.0 mi Calm Calm - N/A   Clear
11:55 PM 64.0 °F - 52.7 °F 67% 29.90 in 10.0 mi Calm Calm - N/A   Clear